Location: Angwan Shehu
(11.2514°N, 7.4613°E)
Time: 10:00:27
(UTC+00:00)

YAOGAN 1 - Pass Details

Date: 14 November 2019
Orbit: 619 x 621 km, 98.0° (Epoch: 15 December)

Event Time Altitude Azimuth Distance (km) Brightness Sun altitude
Rises 17:57:43 0° 155° (SSE) 2,886 5.9 -13.6°
Reaches altitude 10° 17:59:59 10° 148° (SSE) 1,981 5.0 -14.2°
Maximum altitude 18:04:03 42° 77° (ENE) 890 2.9 -15.1°
Drops below altitude 10° 18:08:07 10° 7° (N) 1,980 4.9 -16.1°
Sets 18:10:23 0° 360° (N) 2,886 5.8 -16.6°
